Погода в Теребени

Россия / Калужская область     53°25′43″N   35°15′54″E
В апреле 2022 года жителям России запретили посещать сайт meteo.paraplan.net по решению Генеральной прокуратуры. Аудитория сайта уменьшилась в 10 раз. Владельцы сайта не видят смысла в поддержке погодного сервера в таких условиях. Сайт будет закрыт в октябре.
темп.,
°C
ветер,
м/с
пор.,
м/с
влажн.,
%
обл.,
%
осадки,
мм/ч
давл.,
гПа
погр.,
м
29 сентября, чт
чт2900:00+8юв239499 0.0 1005105
03:00+8ююв2696100 0.0 1005204
06:00+10ююз399754 0.2 1005350
09:00+10зюз478798 0.2 1007553
12:00+14зюз356963 0.0 1009773
15:00+14зюз3462100 0.0 1010757
18:00+11ю22797 0.0 101211
21:00+9ююв2287100 0.0 101339
30 сентября, пт
пт3000:00+8ююв278969 0.0 1013140
03:00+8ююв299099 0.0 1014167
06:00+9ююв31193100 0.0 1013246
09:00+12ююв3990100 0.3 1014340
12:00+13ююв3896100 1.1 1014395
15:00+13ююз279793 1.6 1015393
18:00+13ююв259999 0.0 1015176
21:00+13в009781 0.0 101610
1 октября, сб
сб100:00+13юв1198100 0.1 101612
03:00+12вюв1198100 0.2 101630
06:00+12юв2398100 0.1 101665
09:00+13ю2797100 0.3 1016242
12:00+17ююз488153 0.6 1015796
15:00+16юз41086100 1.9 1013543
18:00+14зюз31095100 3.1 1013530
21:00+13юз2898100 6.3 1011393
2 октября, вс
вс200:00+13зюз2799100 1.4 1011450
03:00+12зюз279791 2.0 1011312
06:00+10з2699100 0.0 1012218
09:00+11сз238787 0.0 1012413
12:00+14зсз1274100 0.0 1012620
15:00+14св2277100 0.0 1011197
18:00+12св3785100 0.0 1010247
21:00+11всв41088100 0.1 1009415
3 октября, пн
пн300:00+10всв51294100 1.9 1007489
03:00+10в41297100 8.8 1004451
06:00+14в51196100 3.8 999581
09:00+14вюв61495100 7.3 997785
12:00+14вюв61392100 0.9 995851
15:00+14вюв61393100 1.3 993950
18:00+14вюв71492100 5.3 9901207
21:00+10вюв71393100 5.6 988920